Regional Weather Roundup
Issued by NWS

Home | Current Version | Previous Version | Text Only | Print | Product List | Glossary On
Versions: 1 2 3 4 5 6 7 8 9 10 11 12 13 14 15 16 17 18 19 20 21 22 23 24 25 26 27 28 29 30 31 32 33 34 35 36 37 38 39 40 41 42 43 44 45 46 47 48 49 50
000
ASUS43 KLSX 210759
RWRMO

WEATHER SUMMARY FOR MISSOURI
NATIONAL WEATHER SERVICE SPRINGFIELD MO
300 AM CDT TUE APR 21 2015

NOTE: "FAIR" INDICATES FEW OR NO CLOUDS BELOW 12,000 FEET WITH NO
       SIGNIFICANT WEATHER AND/OR OBSTRUCTIONS TO VISIBILITY.
       CURRENT SKY AND/OR WEATHER CONDITIONS ARE NOT AVAILABLE FOR
       CHILLICOTHE AND FARMINGTON.

MOZ001>031-035>038-043-044-053-054-210900-
...NORTHERN AND WESTERN MISSOURI...

CITY           SKY/WX    TMP DP  RH WIND       PRES   REMARKS
KANSAS CTY INT CLEAR     41  31  67 SW8       29.84F
KANSAS C DTWN  PTCLDY    49  31  49 SW10      29.85S
LEE`S SUMMIT   PTCLDY    43  31  62 SW7       29.86S
ST JOSEPH      PTCLDY    46  30  53 W10       29.85R
CHILLICOTHE      N/A     46  29  51 VRB3      29.82F
KIRKSVILLE     CLEAR     43  27  53 W7        29.78S

$$
MOZ066>068-077>081-088>096-101>105-210900-
...SOUTHWEST MISSOURI...

CITY           SKY/WX    TMP DP  RH WIND       PRES   REMARKS
SPRINGFIELD    CLEAR     43  33  68 SW9       29.91F
JOPLIN         PTCLDY    47  37  68 SW10      29.92F

$$
MOZ032>034-039>042-045>050-055>058-069>072-210900-
...CENTRAL MISSOURI...

CITY           SKY/WX    TMP DP  RH WIND       PRES   REMARKS
COLUMBIA       PTCLDY    46  30  53 W10       29.83F
JEFFERSON CITY PTCLDY    46  29  51 NE3       29.85S
ROLLA          CLEAR     41  28  60 SW12      29.85S
SEDALIA        CLEAR     45  33  63 SW9       29.86S
OSAGE BEACH    CLEAR     46  27  46 SW6       29.87F

$$
MOZ051-052-059>065-210900-
...EAST CENTRAL MISSOURI...

CITY           SKY/WX    TMP DP  RH WIND       PRES   REMARKS
ST LOUIS INTL  CLEAR     47  28  47 SW10      29.82S
SPIRIT OF STL  CLEAR     46  28  49 SW9       29.82F
ST CHARLES     CLEAR     45  31  58 W3        29.81S

$$
MOZ072>076-082>087-097>100-106>115-210900-
...SOUTH CENTRAL AND SOUTHEAST MISSOURI...

CITY           SKY/WX    TMP DP  RH WIND       PRES   REMARKS
CAPE GIRARDEAU CLEAR     45  38  76 SW8       29.91R
FARMINGTON     CLEAR     43  28  56 SW3       29.91S
POPLAR BLUFF   CLEAR     46  33  60 SW6       29.92S
WEST PLAINS    CLEAR     42  30  62 SW5       29.93F

$$



USA.gov is the U.S. government's official web portal to all federal, state and local government web resources and services.